Starlink 3270

operational
NORAD ID: 50199 Int'l Des: 2021-125 Owner: SPXS Country: US Constellation: starlink
LEOCIRCULAR

Starlink 3270について

説明を読み込み中...

リアルタイム位置

3D地球を読み込み中...

次回通過

高度履歴

Altitude vs Time

uPlot chart will show altitude changes over time

軌道要素

1 50199U 21125AV 25261.10408792 .00001001 00000-0 80956-4 0 9996
2 50199 53.2171 293.8886 0001164 89.0053 271.1073 15.08847401210671
Epoch: Sep 18, 2025 • Age: 17 hours

現在のステータス

高度 542.2 km
速度 7.59 km/s
衛星直下点 -8.26°S, 169.53°W
打ち上げ日 Dec 18, 2021
運用期間 3.7 years
タイプ internet

技術仕様

分類 Payload
質量 290.00 kg
乾燥質量 270.00 kg
総質量 290.00 kg
長さ 0.20 m
直径 2.80 m
スパン 9.00 m
形状 Box + pan
製造者 SPXS
バスタイプ Starlink
フェーズステータス In Orbit
所有者/国 SPXS/US

大規模コンステレーション

Loading constellations...